Погода в Воскресенском

Россия / Вологодская область     59°25′54″N   37°55′25″E
темп.,
°C
ветер,
м/с
пор.,
м/с
влажн.,
%
обл.,
%
осадки,
мм/ч
давл.,
гПа
погр.,
м
24 мая, вт
вт2400:00+1ссз41198100 0.9 1005581
03:000ссз41098100 2.4 1005780
06:000ссз4997100 0.8 1005766
09:00+2с5884100 1.3 10061045
12:00+3с5777100 0.3 10081226
15:00+4с4677100 0.6 10101053
18:00+3с3784100 0.1 1012817
21:00+2ссз379143 0.1 1014364
25 мая, ср
ср2500:00−1с25975 0.0 101591
03:00−2ссз24967 0.0 101661
06:00+2ссз248345 0.0 1016163
09:00+7ссз236276 0.0 10151084
12:00+8сз2359100 0.1 10151273
15:00+8ссз3459100 0.1 10141130
18:00+7ссз347298 0.0 1014829
21:00+4сз259396 0.1 1013153
26 мая, чт
чт2600:00+3ссз2594100 0.0 1013149
03:00+3ссз1295100 0.0 101278
06:00+3ссз1291100 0.0 1010138
09:00+7ссз1266100 0.0 1009816
12:00+11ссз1146100 0.0 10071352
15:00+13зюз1142100 0.0 10051728
18:00+12ю2147100 0.0 10031366
21:00+7юв2577100 0.0 1001106
27 мая, пт
пт2700:00+5вюв2584100 0.0 1000125
03:00+4в2686100 0.0 998167
06:00+6вюв138088 0.0 997201
09:00+10юв2272100 0.0 996829
12:00+12ююз2355100 0.1 9971522
15:00+11ю2365100 0.1 997632
18:00+11ю467786 0.1 998751
21:00+9ююз389863 0.8 998330
28 мая, сб
сб2800:00+7ю2799100 0.1 998169
03:00+6ююв229890 0.1 99739
06:00+8юв2695100 0.2 996201
09:00+11юв2383100 0.4 994643
12:00+9юз3592100 2.5 993479
15:00+8зюз5995100 5.3 994640
18:00+7з51393100 2.4 9971096
21:00+7зюз51193100 3.4 999846